User: anonymous   Login
Location: Unspecified
(0.0000°N, 0.0000°E)
Time: 21:17:54
(UTC+00:00)
Language:

SAUDISAT 1B - Orbit

View from above orbital plane
View from above orbital plane
View from above satellite
View from above satellite

Ground track
Ground track

The orbit data is extracted from the following two-line orbital elements,

1 26549U 00057E   17141.62125531 +.00000028 +00000-0 +21703-4 0  9994
2 26549 064.5525 203.5644 0048821 230.1883 129.4921 14.83357446899499
Epoch (UTC): 21 May 2017 14:54:36
Eccentricity: 0.0048821
inclination: 64.5525°
perigee height: 584 km
apogee height: 653 km
right ascension of ascending node: 203.5644°
argument of perigee: 230.1883°
revolutions per day: 14.83357446
mean anomaly at epoch: 129.4921°
orbit number at epoch: 89949

The dashed part of the orbit path shows where the satellite is in the earth's shadow,  

DLR